This is the latest recevied weather packets stored in our database for station/object N3TTT-13. If no packets are shown the sender has not sent any weather packets the latest 10 day(s).
| Time | Temp. | Humidity | Pressure | Rain* | Wind** | Luminosity | Snow |
|---|---|---|---|---|---|---|---|
| 1777933704 | 22.22° C | 41% | 1010.8 hPa | 0 mm | - | 29 W/m² | - |
| 1777933401 | 22.22° C | 41% | 1010.7 hPa | 0 mm | - | 30 W/m² | - |
| 1777933100 | 22.22° C | 40% | 1010.7 hPa | 0 mm | - | 35 W/m² | - |
| 1777932796 | 22.22° C | 40% | 1011.2 hPa | 0 mm | - | 37 W/m² | - |
| 1777932493 | 22.78° C | 39% | 1011 hPa | 0 mm | - | 45 W/m² | - |
| 1777932190 | 22.78° C | 39% | 1010.7 hPa | 0 mm | - | 75 W/m² | - |
| 1777931888 | 22.78° C | 39% | 1010.7 hPa | 0 mm | - | 42 W/m² | - |
| 1777931584 | 22.78° C | 40% | 1010.9 hPa | 0 mm | - | 44 W/m² | - |
| 1777931280 | 22.78° C | 40% | 1010.9 hPa | 0 mm | - | 40 W/m² | - |
| 1777930976 | 22.78° C | 37% | 1011.1 hPa | 0 mm | - | 52 W/m² | - |
| 1777930673 | 22.78° C | 38% | 1010.9 hPa | 0 mm | - | 58 W/m² | - |
| 1777930369 | 22.78° C | 40% | 1010.9 hPa | 0 mm | - | 52 W/m² | - |
| 1777930067 | 22.78° C | 39% | 1011 hPa | 0 mm | - | 42 W/m² | - |
| 1777929763 | 22.78° C | 37% | 1011 hPa | 0 mm | - | 73 W/m² | - |
| 1777929461 | 23.33° C | 38% | 1011 hPa | 0 mm | - | 63 W/m² | - |
| 1777929156 | 23.33° C | 40% | 1011 hPa | 0 mm | - | 49 W/m² | - |
| 1777928854 | 23.33° C | 38% | 1010.9 hPa | 0 mm | - | 263 W/m² | - |
| 1777928551 | 23.33° C | 38% | 1011.1 hPa | 0 mm | - | 46 W/m² | - |
| 1777928248 | 22.78° C | 40% | 1011.1 hPa | 0 mm | - | 43 W/m² | - |
| 1777927946 | 22.78° C | 38% | 1011.1 hPa | 0 mm | - | 44 W/m² | - |
| 1777927644 | 22.78° C | 38% | 1010.9 hPa | 0 mm | - | 44 W/m² | - |
| 1777927342 | 23.33° C | 38% | 1011.1 hPa | 0 mm | - | 177 W/m² | - |
| 1777927041 | 23.33° C | 37% | 1011.5 hPa | 0 mm | - | 200 W/m² | - |
| 1777926738 | 23.33° C | 38% | 1011.4 hPa | 0 mm | - | 389 W/m² | - |
| 1777926438 | 23.33° C | 37% | 1011.2 hPa | 0 mm | - | 302 W/m² | - |
* Rain latest hour (hover to see other rain measurements)
** Current wind speed in m/s (hover to see current wind gust speed)